IGO5149 VOMM-VABB

Flight info

Callsign IGO5149
Flight time 1h 26m
Altitude 36000
Route DOLKI2A DOLKI Q8 BEDOL MOLGO2A
Aircraft A320/M-SDE3FGHIRWY/LB1

Departure

Time 2026-04-26 17:15
Airport Chennai International Airport (VOMM)

Arrival

Time 2026-04-26 18:41
Airport Chhatrapati Shivaji Maharaj International Airport (VABB)
Time Latitude Longitude Altitude Speed Heading
2026-04-26 16:52 12.98438 80.16568 46 ft 0 kts 159°
2026-04-26 17:07 12.98442 80.16567 48 ft 2 kts 159°
2026-04-26 17:08 12.98460 80.16560 45 ft 3 kts 161°
2026-04-26 17:08 12.98480 80.16554 46 ft 3 kts 165°
2026-04-26 17:08 12.98499 80.16549 48 ft 3 kts 172°
2026-04-26 17:08 12.98519 80.16547 48 ft 2 kts 181°
2026-04-26 17:09 12.98523 80.16548 48 ft 0 kts 183°
2026-04-26 17:11 12.98520 80.16546 48 ft 3 kts 195°
2026-04-26 17:11 12.98489 80.16488 48 ft 13 kts 248°
2026-04-26 17:12 12.98411 80.16278 46 ft 18 kts 250°
2026-04-26 17:12 12.98367 80.16144 46 ft 21 kts 249°
2026-04-26 17:13 12.98307 80.15844 47 ft 23 kts 288°
2026-04-26 17:13 12.98355 80.15679 47 ft 25 kts 285°
2026-04-26 17:13 12.98394 80.15375 48 ft 19 kts 258°
2026-04-26 17:14 12.98445 80.15372 48 ft 12 kts 62°
2026-04-26 17:14 12.98723 80.16116 48 ft 119 kts 69°
2026-04-26 17:14 12.99079 80.17070 44 ft 166 kts 69°
2026-04-26 17:15 12.99940 80.19455 1103 ft 180 kts 78°
2026-04-26 17:15 13.00615 80.20560 1642 ft 193 kts 49°
2026-04-26 17:15 13.01716 80.21498 1865 ft 215 kts 41°
2026-04-26 17:16 13.02987 80.22440 2098 ft 235 kts 37°
2026-04-26 17:16 13.04398 80.23421 2396 ft 253 kts 36°
2026-04-26 17:16 13.05884 80.24431 2986 ft 258 kts 33°
2026-04-26 17:16 13.07602 80.25116 3432 ft 278 kts
2026-04-26 17:17 13.09538 80.24892 4134 ft 286 kts 339°
2026-04-26 17:17 13.11166 80.23744 4967 ft 288 kts 310°
2026-04-26 17:17 13.12250 80.22005 5767 ft 291 kts 302°
2026-04-26 17:17 13.13401 80.20280 6551 ft 293 kts 309°
2026-04-26 17:18 13.14662 80.18633 7333 ft 294 kts 311°
2026-04-26 17:18 13.15959 80.17004 8108 ft 296 kts 312°
2026-04-26 17:18 13.17263 80.15350 8870 ft 300 kts 312°
2026-04-26 17:18 13.18571 80.13659 9630 ft 303 kts 312°
2026-04-26 17:19 13.21285 80.10062 10300 ft 339 kts 310°
2026-04-26 17:19 13.22737 80.08100 10766 ft 348 kts 310°
2026-04-26 17:19 13.24181 80.06130 11361 ft 352 kts 309°
2026-04-26 17:20 13.25656 80.04112 12002 ft 355 kts 309°
2026-04-26 17:20 13.26160 80.03422 12217 ft 356 kts 309°
2026-04-26 17:20 13.28651 80.00022 13253 ft 361 kts 308°
2026-04-26 17:20 13.30169 79.97956 13822 ft 364 kts 309°
2026-04-26 17:21 13.31692 79.95879 14391 ft 365 kts 309°
2026-04-26 17:21 13.33222 79.93794 14950 ft 366 kts 308°
2026-04-26 17:21 13.34759 79.91698 15502 ft 368 kts 308°
2026-04-26 17:21 13.36307 79.89592 16042 ft 371 kts 308°
2026-04-26 17:22 13.37874 79.87464 16583 ft 373 kts 308°
2026-04-26 17:22 13.39441 79.85338 17112 ft 376 kts 308°
2026-04-26 17:22 13.40999 79.83214 17655 ft 377 kts 308°
2026-04-26 17:22 13.42582 79.81055 18180 ft 379 kts 308°
2026-04-26 17:23 13.44176 79.78879 18618 ft 383 kts 308°
2026-04-26 17:23 13.45786 79.76684 19043 ft 386 kts 308°
2026-04-26 17:23 13.47409 79.74475 19496 ft 388 kts 308°
2026-04-26 17:23 13.49042 79.72251 19942 ft 391 kts 308°
2026-04-26 17:24 13.50685 79.70013 20398 ft 393 kts 308°
2026-04-26 17:24 13.52339 79.67760 20869 ft 396 kts 308°
2026-04-26 17:24 13.54001 79.65492 21300 ft 398 kts 307°
2026-04-26 17:24 13.55672 79.63208 21733 ft 401 kts 307°
2026-04-26 17:25 13.57356 79.60902 22159 ft 404 kts 307°
2026-04-26 17:25 13.59044 79.58591 22580 ft 407 kts 307°
2026-04-26 17:25 13.60750 79.56259 22978 ft 409 kts 307°
2026-04-26 17:25 13.62468 79.53914 23392 ft 412 kts 307°
2026-04-26 17:26 13.64201 79.51547 23709 ft 414 kts 307°
2026-04-26 17:26 13.65932 79.49179 24110 ft 414 kts 306°
2026-04-26 17:26 13.67670 79.46797 24459 ft 416 kts 306°
2026-04-26 17:26 13.69408 79.44412 24826 ft 417 kts 306°
2026-04-26 17:27 13.71156 79.42016 25164 ft 419 kts 305°
2026-04-26 17:27 13.72912 79.39613 25571 ft 420 kts 306°
2026-04-26 17:27 13.74675 79.37202 25864 ft 423 kts 306°
2026-04-26 17:27 13.76443 79.34779 26183 ft 426 kts 306°
2026-04-26 17:28 13.78227 79.32338 26506 ft 428 kts 306°
2026-04-26 17:28 13.80020 79.29885 26833 ft 430 kts 305°
2026-04-26 17:28 13.81819 79.27421 27189 ft 431 kts 305°
2026-04-26 17:28 13.83623 79.24946 27508 ft 433 kts 305°
2026-04-26 17:29 13.85440 79.22448 27798 ft 436 kts 305°
2026-04-26 17:29 13.86054 79.21606 27902 ft 437 kts 305°
2026-04-26 17:29 13.89099 79.17427 28462 ft 440 kts 305°
2026-04-26 17:29 13.90916 79.14928 28772 ft 442 kts 304°
2026-04-26 17:30 13.92764 79.12387 29126 ft 445 kts 304°
2026-04-26 17:30 13.94627 79.09825 29468 ft 447 kts 304°
2026-04-26 17:30 13.96494 79.07255 29807 ft 449 kts 304°
2026-04-26 17:30 13.98372 79.04674 30104 ft 451 kts 304°
2026-04-26 17:31 14.00263 79.02075 30413 ft 453 kts 304°
2026-04-26 17:31 14.02158 78.99474 30719 ft 454 kts 304°
2026-04-26 17:31 14.04056 78.96866 31086 ft 455 kts 304°
2026-04-26 17:31 14.05946 78.94265 31560 ft 452 kts 303°
2026-04-26 17:32 14.07824 78.91681 32050 ft 449 kts 303°
2026-04-26 17:32 14.09689 78.89112 32551 ft 446 kts 303°
2026-04-26 17:32 14.11544 78.86550 33037 ft 444 kts 302°
2026-04-26 17:32 14.13384 78.84010 33548 ft 441 kts 302°
2026-04-26 17:33 14.15216 78.81488 34051 ft 438 kts 302°
2026-04-26 17:33 14.17039 78.78980 34469 ft 436 kts 302°
2026-04-26 17:33 14.18853 78.76479 34833 ft 435 kts 302°
2026-04-26 17:34 14.21852 78.72336 35439 ft 433 kts 302°
2026-04-26 17:34 14.23654 78.69848 35746 ft 433 kts 302°
2026-04-26 17:34 14.25457 78.67360 35863 ft 433 kts 302°
2026-04-26 17:35 14.29041 78.62413 35882 ft 421 kts 302°
2026-04-26 17:35 14.32517 78.57609 35885 ft 422 kts 301°
2026-04-26 17:36 14.36067 78.52686 35886 ft 431 kts 302°
2026-04-26 17:36 14.39658 78.47715 35876 ft 432 kts 302°
2026-04-26 17:37 14.43242 78.42759 35878 ft 431 kts 302°
2026-04-26 17:37 14.46829 78.37786 35884 ft 432 kts 302°
2026-04-26 17:38 14.52193 78.30346 35887 ft 433 kts 302°
2026-04-26 17:38 14.55806 78.25329 35891 ft 433 kts 302°
2026-04-26 17:39 14.59378 78.20367 35903 ft 433 kts 302°
2026-04-26 17:39 14.62974 78.15378 35908 ft 433 kts 302°
2026-04-26 17:40 14.65987 78.11194 35910 ft 433 kts 301°
2026-04-26 17:40 14.70146 78.05383 35924 ft 433 kts 301°
2026-04-26 17:41 14.73735 78.00377 35922 ft 433 kts 301°
2026-04-26 17:41 14.77329 77.95382 35921 ft 433 kts 301°
2026-04-26 17:42 14.80919 77.90386 35923 ft 433 kts 301°
2026-04-26 17:42 14.84511 77.85369 35924 ft 434 kts 301°
2026-04-26 17:43 14.88100 77.80353 35924 ft 434 kts 301°
2026-04-26 17:43 14.91691 77.75338 35923 ft 434 kts 301°
2026-04-26 17:44 14.95286 77.70317 35924 ft 434 kts 301°
2026-04-26 17:44 14.98874 77.65301 35925 ft 434 kts 301°
2026-04-26 17:45 15.02467 77.60284 35928 ft 434 kts 301°
2026-04-26 17:45 15.06058 77.55255 35929 ft 434 kts 301°
2026-04-26 17:46 15.09622 77.50260 35927 ft 435 kts 301°
2026-04-26 17:46 15.13211 77.45224 35927 ft 435 kts 301°
2026-04-26 17:47 15.16221 77.40999 35928 ft 435 kts 301°
2026-04-26 17:47 15.20396 77.35135 35928 ft 435 kts 301°
2026-04-26 17:48 15.23986 77.30096 35929 ft 435 kts 301°
2026-04-26 17:48 15.27571 77.25046 35938 ft 435 kts 301°
2026-04-26 17:49 15.31168 77.19994 35940 ft 435 kts 301°
2026-04-26 17:49 15.34745 77.14968 35934 ft 435 kts 301°
2026-04-26 17:50 15.38353 77.09882 35931 ft 435 kts 301°
2026-04-26 17:50 15.41957 77.04834 35931 ft 436 kts 301°
2026-04-26 17:51 15.45698 76.99871 35929 ft 437 kts 303°
2026-04-26 17:51 15.49464 76.94979 35928 ft 437 kts 303°
2026-04-26 17:52 15.53236 76.90039 35927 ft 437 kts 302°
2026-04-26 17:52 15.56988 76.85083 35927 ft 437 kts 302°
2026-04-26 17:53 15.60733 76.80113 35934 ft 436 kts 302°
2026-04-26 17:54 15.66333 76.72682 35935 ft 436 kts 302°
2026-04-26 17:54 15.70065 76.67724 35932 ft 435 kts 302°
2026-04-26 17:55 15.73791 76.62775 35937 ft 435 kts 302°
2026-04-26 17:55 15.77530 76.57824 35936 ft 435 kts 302°
2026-04-26 17:56 15.81269 76.52873 35930 ft 435 kts 302°
2026-04-26 17:57 15.88696 76.42993 35933 ft 435 kts 302°
2026-04-26 17:57 15.92426 76.38036 35938 ft 435 kts 302°
2026-04-26 17:58 15.99873 76.28112 35939 ft 435 kts 302°
2026-04-26 17:59 16.05453 76.20664 35939 ft 435 kts 302°
2026-04-26 17:59 16.09166 76.15697 35937 ft 435 kts 302°
2026-04-26 18:00 16.12881 76.10734 35939 ft 435 kts 302°
2026-04-26 18:00 16.16601 76.05765 35936 ft 435 kts 302°
2026-04-26 18:01 16.20312 76.00797 35932 ft 435 kts 302°
2026-04-26 18:01 16.24024 75.95832 35935 ft 434 kts 302°
2026-04-26 18:02 16.27102 75.91711 35937 ft 434 kts 302°
2026-04-26 18:02 16.31433 75.85903 35935 ft 434 kts 302°
2026-04-26 18:03 16.35132 75.80937 35932 ft 434 kts 302°
2026-04-26 18:03 16.38835 75.75964 35929 ft 434 kts 302°
2026-04-26 18:04 16.42540 75.70993 35930 ft 434 kts 302°
2026-04-26 18:05 16.48098 75.63526 35934 ft 435 kts 302°
2026-04-26 18:05 16.51801 75.58542 35934 ft 435 kts 302°
2026-04-26 18:06 16.55498 75.53553 35939 ft 435 kts 302°
2026-04-26 18:06 16.59193 75.48571 35944 ft 434 kts 302°
2026-04-26 18:07 16.62901 75.43604 35948 ft 434 kts 302°
2026-04-26 18:07 16.66646 75.38665 35944 ft 434 kts 302°
2026-04-26 18:08 16.70397 75.33728 35943 ft 434 kts 302°
2026-04-26 18:08 16.74141 75.28782 35944 ft 434 kts 302°
2026-04-26 18:09 16.77884 75.23831 35946 ft 434 kts 302°
2026-04-26 18:09 16.81624 75.18876 35945 ft 435 kts 302°
2026-04-26 18:10 16.85364 75.13916 35953 ft 435 kts 302°
2026-04-26 18:10 16.89099 75.08955 35954 ft 434 kts 302°
2026-04-26 18:11 16.92805 75.04025 35963 ft 434 kts 302°
2026-04-26 18:11 16.96533 74.99075 35958 ft 433 kts 302°
2026-04-26 18:12 17.00263 74.94130 35956 ft 433 kts 302°
2026-04-26 18:12 17.03973 74.89185 35947 ft 432 kts 302°
2026-04-26 18:13 17.07682 74.84227 35943 ft 432 kts 302°
2026-04-26 18:13 17.11398 74.79281 35943 ft 432 kts 302°
2026-04-26 18:14 17.15168 74.74244 35937 ft 448 kts 302°
2026-04-26 18:14 17.18380 74.69952 35922 ft 451 kts 302°
2026-04-26 18:15 17.22251 74.64786 35925 ft 451 kts 302°
2026-04-26 18:15 17.26122 74.59620 35933 ft 451 kts 302°
2026-04-26 18:16 17.29994 74.54453 35933 ft 451 kts 302°
2026-04-26 18:16 17.35790 74.46692 35929 ft 451 kts 302°
2026-04-26 18:17 17.39654 74.41510 35932 ft 451 kts 302°
2026-04-26 18:17 17.41579 74.38921 35756 ft 452 kts 302°
2026-04-26 18:17 17.43513 74.36321 35520 ft 451 kts 302°
2026-04-26 18:18 17.45447 74.33726 35295 ft 452 kts 302°
2026-04-26 18:18 17.47385 74.31132 35063 ft 452 kts 301°
2026-04-26 18:18 17.49327 74.28540 34835 ft 452 kts 302°
2026-04-26 18:18 17.51269 74.25946 34615 ft 453 kts 301°
2026-04-26 18:19 17.53211 74.23349 34371 ft 453 kts 301°
2026-04-26 18:19 17.55155 74.20748 34148 ft 454 kts 301°
2026-04-26 18:19 17.57101 74.18143 33924 ft 454 kts 301°
2026-04-26 18:19 17.59047 74.15533 33668 ft 455 kts 301°
2026-04-26 18:20 17.60993 74.12918 33404 ft 455 kts 301°
2026-04-26 18:20 17.62939 74.10298 33150 ft 456 kts 302°
2026-04-26 18:20 17.64891 74.07677 32887 ft 456 kts 302°
2026-04-26 18:20 17.66193 74.05932 32732 ft 457 kts 302°
2026-04-26 18:21 17.68817 74.02415 32400 ft 457 kts 302°
2026-04-26 18:21 17.70751 73.99821 32163 ft 458 kts 302°
2026-04-26 18:21 17.72712 73.97185 31916 ft 459 kts 302°
2026-04-26 18:21 17.74675 73.94543 31673 ft 459 kts 302°
2026-04-26 18:22 17.76641 73.91899 31437 ft 460 kts 302°
2026-04-26 18:22 17.78611 73.89249 31196 ft 459 kts 302°
2026-04-26 18:22 17.80573 73.86605 30958 ft 459 kts 302°
2026-04-26 18:22 17.82528 73.83962 30722 ft 460 kts 302°
2026-04-26 18:23 17.84488 73.81307 30498 ft 460 kts 302°
2026-04-26 18:23 17.86450 73.78650 29762 ft 460 kts 302°
2026-04-26 18:23 17.88426 73.75971 28470 ft 468 kts 303°
2026-04-26 18:23 17.90412 73.73278 27326 ft 461 kts 303°
2026-04-26 18:24 17.92362 73.70646 26163 ft 451 kts 303°
2026-04-26 18:24 17.94290 73.68069 25138 ft 451 kts 307°
2026-04-26 18:24 17.96652 73.65853 24821 ft 464 kts 322°
2026-04-26 18:24 17.99503 73.64191 24719 ft 472 kts 329°
2026-04-26 18:25 18.02442 73.62615 24621 ft 475 kts 329°
2026-04-26 18:25 18.05401 73.61059 24527 ft 475 kts 330°
2026-04-26 18:25 18.08407 73.59495 24320 ft 489 kts 330°
2026-04-26 18:25 18.11479 73.57902 24097 ft 494 kts 330°
2026-04-26 18:26 18.14565 73.56305 23871 ft 494 kts 330°
2026-04-26 18:26 18.17654 73.54700 23652 ft 494 kts 330°
2026-04-26 18:26 18.20719 73.53100 23244 ft 492 kts 330°
2026-04-26 18:26 18.23762 73.51505 22515 ft 485 kts 330°
2026-04-26 18:27 18.26781 73.49919 21397 ft 483 kts 331°
2026-04-26 18:27 18.29778 73.48343 20418 ft 478 kts 331°
2026-04-26 18:27 18.32741 73.46786 19571 ft 472 kts 332°
2026-04-26 18:27 18.35670 73.45247 18640 ft 469 kts 332°
2026-04-26 18:28 18.38565 73.43729 17865 ft 461 kts 332°
2026-04-26 18:28 18.41418 73.42234 16934 ft 453 kts 333°
2026-04-26 18:28 18.44192 73.40778 15478 ft 443 kts 334°
2026-04-26 18:28 18.46902 73.39350 14627 ft 424 kts 334°
2026-04-26 18:29 18.49538 73.37959 13837 ft 424 kts 335°
2026-04-26 18:29 18.52169 73.36572 12959 ft 423 kts 335°
2026-04-26 18:29 18.54794 73.35191 12184 ft 420 kts 335°
2026-04-26 18:29 18.57402 73.33821 11417 ft 416 kts 335°
2026-04-26 18:30 18.59965 73.32476 11054 ft 401 kts 335°
2026-04-26 18:30 18.62391 73.31198 10934 ft 381 kts 335°
2026-04-26 18:30 18.64701 73.29979 10810 ft 363 kts 335°
2026-04-26 18:30 18.66913 73.28811 10691 ft 347 kts 334°
2026-04-26 18:31 18.69023 73.27696 10587 ft 333 kts 334°
2026-04-26 18:31 18.71065 73.26619 10460 ft 322 kts 334°
2026-04-26 18:31 18.73011 73.25595 10342 ft 311 kts 334°
2026-04-26 18:31 18.74945 73.24574 10117 ft 304 kts 334°
2026-04-26 18:32 18.76820 73.23586 10042 ft 300 kts 334°
2026-04-26 18:32 18.78690 73.22601 9911 ft 300 kts 334°
2026-04-26 18:32 18.80558 73.21617 9661 ft 302 kts 334°
2026-04-26 18:32 18.82457 73.20618 9233 ft 303 kts 334°
2026-04-26 18:33 18.84301 73.19644 8984 ft 298 kts 334°
2026-04-26 18:33 18.86143 73.18671 8680 ft 295 kts 334°
2026-04-26 18:33 18.87973 73.17705 8367 ft 292 kts 334°
2026-04-26 18:33 18.89782 73.16749 8042 ft 289 kts 334°
2026-04-26 18:34 18.91583 73.15795 7734 ft 287 kts 334°
2026-04-26 18:34 18.93361 73.14863 7439 ft 284 kts 336°
2026-04-26 18:34 18.95236 73.14290 6991 ft 280 kts 350°
2026-04-26 18:34 18.97143 73.14023 6480 ft 274 kts 354°
2026-04-26 18:35 18.99039 73.13863 5847 ft 272 kts 355°
2026-04-26 18:35 19.00925 73.13726 5195 ft 271 kts 355°
2026-04-26 18:35 19.02805 73.13577 4565 ft 270 kts 354°
2026-04-26 18:35 19.04611 73.13316 4343 ft 252 kts 344°
2026-04-26 18:36 19.06156 73.12623 4238 ft 234 kts 329°
2026-04-26 18:36 19.07407 73.11581 4119 ft 226 kts 315°
2026-04-26 18:36 19.08339 73.10277 3935 ft 221 kts 301°
2026-04-26 18:36 19.08929 73.08781 3702 ft 221 kts 288°
2026-04-26 18:37 19.09141 73.07169 3450 ft 223 kts 273°
2026-04-26 18:37 19.09121 73.05537 3183 ft 221 kts 272°
2026-04-26 18:37 19.09099 73.03937 2916 ft 215 kts 271°
2026-04-26 18:37 19.09079 73.02366 2645 ft 210 kts 271°
2026-04-26 18:38 19.09059 73.00894 2406 ft 194 kts 270°
2026-04-26 18:38 19.09041 72.99544 2173 ft 172 kts 270°
2026-04-26 18:38 19.09026 72.98379 1968 ft 150 kts 269°
2026-04-26 18:38 19.09013 72.97316 1780 ft 141 kts 268°
2026-04-26 18:39 19.09000 72.96292 1605 ft 138 kts 267°
2026-04-26 18:39 19.08986 72.95280 1425 ft 137 kts 268°
2026-04-26 18:39 19.08980 72.94268 1243 ft 138 kts 267°
2026-04-26 18:39 19.08959 72.93244 1056 ft 138 kts 267°
2026-04-26 18:40 19.08940 72.92219 886 ft 141 kts 268°
2026-04-26 18:40 19.08932 72.91210 761 ft 135 kts 266°
2026-04-26 18:40 19.08918 72.90207 589 ft 138 kts 266°
2026-04-26 18:40 19.08899 72.89214 345 ft 130 kts 270°
2026-04-26 18:41 19.08897 72.88238 203 ft 134 kts 266°
2026-04-26 18:41 19.08884 72.87255 66 ft 129 kts 265°
2026-04-26 18:41 19.08867 72.86406 48 ft 98 kts 269°
2026-04-26 18:41 19.08873 72.85988 47 ft 31 kts 285°
2026-04-26 18:42 19.08955 72.85825 49 ft 19 kts 306°
2026-04-26 18:42 19.09025 72.85696 49 ft 20 kts 292°
2026-04-26 18:42 19.09045 72.85603 47 ft 12 kts 332°
2026-04-26 18:42 19.09097 72.85554 49 ft 12 kts 271°
2026-04-26 18:43 19.09094 72.85490 49 ft 6 kts 279°
2026-04-26 18:43 19.09130 72.85486 49 ft 7 kts
2026-04-26 18:43 19.09156 72.85486 48 ft 1 kts 359°